STARLINK-30089, 56296

Orbit data source: Space-Track

STARLINK-30089, 56296 is a payload satellite owned by SpaceX/Seattle (US) in LEO that was launched on Wed, 19 Apr 2023 UTC via an FALCON 9 launch vehicle from the Air Force Eastern Test Range (AFETR). Payload-class satellites include a variety of spacecraft equipped with specific instruments for various scientific and technological missions. These include communications satellites like Starlink; space stations such as the ISS; scientific satellites like the Hubble; Earth observation satellites from companies like Planet Labs, Umbra, and HawkEye 360; GPS; miniature CubeSats for education and research; and military/defense satellites.

Loading next visibility...
Identifier
56296, 2023-056L
Orbit
LEO
Last TLE update
15 hours ago
Origin
Manufacturer
SpaceX/Seattle
Mission
Operational Commercial Communications
Bus & Motor
STARLINK V2M, Unknown motor
Mass
730 kg wet, ~700 kg dry
Launch date (UTC)
2023-04-19 (2 years ago)
Launch vehicle
FALCON 9
Launch site
Air Force Eastern Test Range (AFETR)
Object type
Payload
Rocket body
Debris
Shape & HBR
Box + 2 Pan, 29 m
Radar Cross Section
33.884 m², Large (>1 m²)

Expand to show TLE details & history

TLE from 15 hours ago
0 STARLINK-30089
1 56296U 23056L   25130.37353458 -.00000094  00000-0  81131-5 0  9996
2 56296  43.0044  19.5214 0001356 271.8008  88.2679 15.02535617114841
Epoch: 2025-05-10T08:57Z
Definitive object data (Epoch: 2025-05-10T08:57:53.387Z)
Latitude
-0.00003°
Longitude
16.63267°
Altitude
558.831 km
Speed
7.584 km/s
True Right ascension
01h 18m 05s
True Declination
0° 00' 00"
Sunlit
Object was in daylight at TLE epoch
Visualization TLE readout
Latitude
-15.66051°
Longitude
-149.42927°
Altitude
561.904 km
Speed
7.581 km/s
Apparent Right ascension
16h 44m 03s
Apparent Declination
-36° 29' 49"
Sunlit
Object is in full shadow
Visualization observer readout
Local Sidereal Time
08:29:08
Azimuth
104.247° ESE
Elevation
-46.388°
Doppler factor
1
Orbital elements
Apogee altitude
561.945 km
Perigee altitude
560.063 km
Semi-major axis
6,939.141 km
Eccentricity
0.0001356
Inclination
43.0044°
RAAN
19.5214°
Arg. of periapsis
271.8008°
True anomaly
88.28343°
Mean anomaly
88.2679°
Eccentric anomaly
88.27567°
Mean motion
3.75478 °/min
BSTAR
0.0000081131
Orbital period
95.88 mins
Loading maneuver chart data...
Loading SW <> Apogee altitude chart data...
Loading historical data...
Loading historical data...
Loading historical data...
Loading historical data...
Loading historical data...
Loading historical data...
Loading historical data...

STARLINK-30089 Visibility forecast

Observer location: undefined°, undefined°

Span
Click to sort rows by Start time (UTC) header in descending order
Start Az.
Max El. time (UTC)
Max El. Az.
Max El.
End time (UTC)
End Az.
7 mins2025-05-11 01:23:26.080Z280.031° WNW2025-05-11 01:26:26.080Z231.75° WSW36.004°2025-05-11 01:30:26.080Z134.556° SE
4 mins2025-05-11 18:39:26.080Z175.683° S2025-05-11 18:41:26.080Z140.583° SSE18.216°2025-05-11 18:43:26.080Z106.803° ESE
7 mins2025-05-11 20:18:26.080Z241.441° WSW2025-05-11 20:21:26.080Z179.007° S43.872°2025-05-11 20:25:26.080Z73.715° E
7 mins2025-05-11 21:59:26.080Z281.172° WNW2025-05-11 22:02:26.080Z359.741° N39.793°2025-05-11 22:06:26.080Z75.125° E
7 mins2025-05-11 23:40:26.080Z291.079° WNW2025-05-11 23:43:26.080Z31.067° NE43.713°2025-05-11 23:47:26.080Z99.755° ESE
|